Temp
23 23 21 22 22 22 21 21 21 21 21 21 21 20 20 20 19 19 18 19 19 19 19 19 19 19 19 19 20 20 20 20 15 14 14 14 14 14 14 13 14 14 14
23 22 22 22 22 22 21 21 21 21 21 21 21 20 20 20 20 19 18 18 18 18 19 19 19 20 19 19 19 19 18 18 15 13 13 13 13 13 13 14 13 14 14
23 22 22 22 22 22 21 21 21 21 21 20 20 20 20 20 19 19 18 18 17 17 18 18 19 19 19 19 18 18 17 15 14 13 12 13 12 13 13 13 13 13 13
23 23 23 22 22 22 21 21 21 21 20 20 20 20 20 20 19 19 18 18 18 17 18 18 18 18 18 18 17 17 16 15 14 13 13 12 13 13 13 13 13 13 13
23 23 23 23 22 22 21 21 21 21 21 20 20 20 20 20 19 19 18 18 18 17 17 17 17 17 18 18 18 16 16 14 13 13 13 12 13 13 13 13 13 13 13
24 23 23 23 22 22 22 21 21 21 21 21 20 20 20 19 19 19 19 18 18 18 17 17 17 17 17 17 17 17 17 16 15 14 13 13 14 14 14 14 14 13 13
24 24 24 23 23 22 22 21 21 21 21 21 20 20 20 19 19 19 18 18 18 18 18 16 17 16 17 16 16 16 16 16 16 16 15 15 14 14 15 15 14 15 15
24 23 23 23 22 20 21 21 21 21 20 20 20 19 19 19 18 18 18 18 18 17 17 17 17 17 17 17 16 16 16 16 16 16 16 15 15 15 15 15 15 15 15
23 22 22 21 20 19 19 19 20 20 20 20 19 19 19 18 18 18 18 18 17 17 17 16 16 16 16 17 17 17 17 16 16 16 16 16 16 16 16 16 16 16 14
21 20 20 19 20 19 18 17 17 19 19 19 19 19 19 19 18 18 18 17 17 17 16 16 16 16 16 16 16 16 16 16 16 16 16 15 15 15 16 16 15 15 15
21 20 21 20 21 20 19 19 17 18 18 18 18 18 18 18 18 17 18 18 17 17 16 16 16 16 16 16 16 16 16 16 15 15 16 15 15 15 15 16 16 15 15
20 20 21 21 19 18 18 18 18 18 18 18 17 18 17 17 17 17 17 17 17 17 16 16 16 16 16 17 17 17 16 16 16 16 16 16 16 15 15 16 16 15 15
18 18 18 18 18 17 18 19 18 18 18 18 17 17 17 17 17 16 17 17 17 17 16 16 16 16 16 16 16 16 16 17 17 17 17 16 17 17 16 16 16 16 15
17 18 17 17 17 16 17 17 18 18 17 17 17 17 17 16 17 16 16 16 16 16 16 15 16 16 16 16 16 16 17 17 17 17 17 17 17 16 16 16 16 16 16
17 16 16 16 15 15 15 15 16 16 17 17 17 18 17 16 17 17 17 16 15 15 15 15 15 15 15 16 16 16 16 17 17 17 17 16 16 16 16 16 16 16 16
17 16 16 16 16 15 14 14 14 15 15 16 16 16 17 17 17 17 17 16 15 15 14 14 15 15 16 16 16 16 16 17 16 16 16 16 16 16 16 16 16 16 15
17 17 17 16 16 15 15 13 13 13 14 14 15 15 16 17 17 17 16 16 15 15 15 15 15 15 15 16 16 16 17 17 16 16 16 16 16 16 16 16 16 16 16
17 17 17 17 17 16 16 15 14 13 13 13 14 14 14 15 15 15 16 15 15 15 15 15 15 15 16 16 17 17 17 16 16 16 16 16 16 16 16 16 16 15 15
17 18 18 17 17 17 16 15 15 14 13 13 13 13 14 13 13 14 14 14 14 14 15 15 15 16 16 17 18 17 17 16 16 16 16 16 16 16 16 16 15 15 15
19 18 18 18 17 17 17 16 16 15 14 13 13 13 12 12 12 13 13 13 13 14 14 15 15 16 16 18 18 17 16 16 16 16 16 16 16 16 15 15 15 15 15
19 19 19 18 18 17 17 17 16 16 15 15 14 15 15 14 12 13 13 13 13 14 15 15 16 17 18 18 18 17 17 17 16 17 16 16 15 15 15 15 15 15 14
19 19 19 18 18 17 17 18 18 17 17 16 15 15 15 14 13 13 14 14 14 15 16 16 17 17 18 18 18 17 17 17 16 16 16 15 15 15 15 14 14 14 13
20 19 19 19 18 18 18 18 19 19 19 17 16 16 15 15 14 15 15 16 16 17 17 17 18 18 18 18 18 17 17 17 16 16 16 15 15 14 14 13 13 13 13
20 20 19 19 18 18 18 18 17 17 18 17 16 16 16 16 15 16 16 16 17 18 19 18 18 18 17 17 17 16 16 16 15 15 15 14 14 13 13 12 12 12 12
17 19 19 19 18 18 17 18 17 17 17 17 17 16 16 16 17 16 16 17 16 16 18 18 18 17 17 16 16 16 16 15 15 14 14 13 12 12 11 11 11 11 11
16 18 18 18 17 17 16 17 17 17 17 17 17 16 16 15 15 15 15 14 14 13 14 15 16 16 15 15 15 14 14 14 13 12 11 11 11 11 10 10 10 10 10
Height
802 804 805 808 810 809 810 811 812 811 811 812 811 813 814 815 815 815 814 816 816 816 814 812 812 810 811 810 810 812 814 817 825 832 835 837 838 839 841 842 842 842 842
801 802 805 804 807 809 810 812 812 811 813 813 813 815 815 815 817 816 817 818 818 816 815 814 814 814 814 813 812 812 814 816 821 829 834 837 839 841 842 843 844 844 844
798 802 804 805 806 808 809 811 812 812 814 815 815 817 818 817 818 818 818 819 819 819 817 815 816 816 815 815 815 815 816 818 822 826 832 837 839 840 842 843 845 846 846
797 800 803 804 805 808 809 810 811 813 814 817 817 818 818 818 819 819 820 821 822 820 819 818 819 818 818 818 818 819 820 821 825 828 832 836 839 841 842 843 845 846 847
795 798 801 802 804 807 808 811 813 813 815 816 818 817 817 818 818 820 821 822 823 824 824 823 822 821 821 821 821 822 823 825 828 831 833 836 838 840 842 843 845 846 847
793 797 800 802 804 807 809 810 812 812 815 816 817 816 818 819 820 821 821 823 824 825 827 827 826 825 824 824 824 826 828 828 830 833 835 837 838 839 841 843 844 845 847
794 795 798 801 804 805 809 811 811 812 815 816 816 816 817 820 821 821 822 823 824 825 826 828 828 829 829 828 828 829 831 832 833 834 835 838 839 840 842 843 843 844 844
794 797 799 802 805 807 807 809 810 810 813 815 815 816 818 818 821 822 823 824 824 826 827 828 829 830 830 830 831 832 833 834 836 837 838 839 840 841 841 842 842 843 844
793 794 796 799 802 805 806 803 807 806 808 812 814 815 817 818 820 822 824 825 825 826 829 830 830 831 832 833 833 834 835 836 837 838 839 840 841 841 841 841 841 841 842
792 793 795 800 801 801 805 793 806 804 807 809 812 814 816 817 819 821 823 824 825 827 829 830 832 832 833 833 835 836 837 836 838 839 840 841 842 843 843 842 842 841 842
793 794 795 797 800 800 797 801 797 792 806 810 812 814 814 816 818 820 821 823 824 826 828 830 831 832 833 834 834 834 835 836 837 837 839 841 844 844 843 842 842 842 842
792 794 795 795 797 800 801 801 803 803 803 806 810 811 811 813 816 818 820 821 824 825 826 828 830 831 832 832 833 834 834 835 835 837 836 838 840 842 842 842 842 842 843
791 793 795 797 799 801 803 800 799 801 802 805 807 807 807 810 814 817 819 821 822 823 825 827 828 830 831 831 833 833 834 834 832 833 835 837 839 840 841 842 841 841 842
792 794 796 797 799 798 799 799 798 797 798 798 800 803 805 807 810 812 815 817 819 821 823 825 826 829 830 830 831 832 834 834 834 835 836 836 837 838 839 841 841 841 841
791 794 795 797 797 797 797 796 796 796 796 796 796 797 799 802 803 807 809 812 816 819 821 823 824 826 827 828 829 830 831 833 833 834 835 835 837 837 838 839 839 839 839
791 793 793 794 794 794 794 794 794 794 794 794 795 794 796 799 801 804 806 809 813 816 818 819 820 822 823 826 826 828 829 829 832 833 834 835 836 837 837 838 838 838 839
789 790 791 791 790 791 791 792 792 792 791 791 791 792 794 795 798 801 804 806 809 812 814 816 817 818 820 821 822 824 826 827 829 831 833 833 834 835 835 835 835 835 836
786 786 786 786 787 787 788 788 789 789 788 789 790 791 791 794 796 798 801 803 806 807 809 812 813 815 817 817 816 818 821 824 826 828 830 831 832 833 833 833 833 833 833
785 784 783 783 783 784 785 785 785 785 785 786 787 789 790 792 795 796 798 799 800 802 804 806 808 810 811 811 811 814 817 820 822 825 827 828 829 830 830 831 832 831 831
781 780 780 780 781 781 781 781 781 781 781 781 782 784 786 789 790 791 792 794 796 798 799 800 802 805 806 807 808 811 814 817 819 821 822 823 824 825 825 827 828 828 828
778 778 776 776 777 776 777 776 776 776 776 777 777 779 780 782 784 786 788 790 790 792 793 795 797 799 801 802 804 807 809 811 814 815 817 818 820 822 821 820 823 824 823
772 772 772 772 772 772 771 771 771 770 769 770 772 776 776 778 779 781 782 783 784 786 788 790 791 792 793 795 798 801 804 807 809 810 811 813 815 816 816 816 817 818 818
767 767 767 766 766 767 767 767 766 763 760 760 763 767 769 772 773 775 777 779 781 783 784 785 786 787 789 791 793 796 798 801 803 804 805 807 808 809 810 811 812 813 812
763 762 761 761 761 761 763 764 763 761 758 759 761 761 762 767 773 776 778 777 777 779 782 783 784 783 785 788 791 794 796 797 799 800 800 801 804 805 806 807 808 808 808
760 758 757 756 756 757 757 759 759 759 759 759 760 765 770 771 772 775 773 770 773 775 775 776 778 780 782 785 787 788 791 793 793 795 796 798 800 801 802 803 803 803 802
758 756 755 753 755 755 754 754 756 758 757 756 757 761 763 767 766 767 768 772 774 778 776 776 777 778 781 784 785 786 787 789 791 792 794 796 796 797 798 799 799 798 798
Wind_Speed
11 14 16 14 10 11 12 11 10 11 11 10 10 11 12 13 12 15 16 14 14 14 18 18 17 17 18 14 10 9 7 12 10 10 18 15 15 12 11 8 8 10 11
15 17 16 17 14 13 10 10 9 12 10 11 11 12 13 15 12 16 17 15 14 15 14 17 18 16 16 16 15 14 12 8 22 17 16 11 11 9 9 7 7 8 9
17 17 15 15 14 12 13 11 11 11 11 10 11 12 12 14 15 15 17 14 12 12 12 15 16 16 17 14 14 16 15 18 23 21 13 13 10 7 8 8 7 7 7
15 17 16 17 15 13 11 10 11 10 10 10 11 11 14 13 14 15 15 16 19 20 20 19 16 16 15 15 15 16 16 20 22 21 18 12 9 8 6 7 5 5 6
19 18 19 20 17 16 13 12 11 12 11 10 10 11 12 12 13 14 15 14 15 17 21 22 21 19 15 13 16 13 16 20 20 19 14 10 8 7 6 5 4 5 3
20 16 22 22 19 17 16 16 14 14 12 10 10 14 8 13 12 15 14 14 12 11 14 16 18 18 20 18 15 16 13 18 19 16 10 12 9 8 8 9 7 5 2
15 13 22 19 18 17 18 17 17 16 13 10 14 11 8 12 11 13 13 13 12 12 11 12 13 12 13 17 19 18 14 10 9 11 12 9 9 7 6 6 8 6 5
14 10 14 10 8 8 16 18 17 18 16 12 12 9 10 14 13 14 13 12 11 10 9 9 12 11 13 13 15 16 14 12 12 11 11 9 7 4 3 2 2 5 5
5 2 4 9 7 8 13 16 16 19 18 16 14 13 10 13 15 13 13 12 13 10 8 9 10 10 11 11 12 15 15 15 11 11 13 12 11 8 7 6 8 6 4
6 13 11 8 4 3 10 11 14 19 19 18 16 14 10 11 15 14 11 12 12 9 11 9 8 10 10 8 8 10 11 9 8 9 10 11 11 11 11 6 9 11 7
6 10 9 5 4 2 3 8 10 4 14 14 13 15 13 8 13 12 7 13 15 12 10 9 9 9 8 7 7 10 9 5 4 6 6 6 8 7 6 9 10 8 10
5 4 4 3 2 3 6 7 9 13 14 15 17 16 14 12 11 13 10 13 12 12 15 10 9 9 8 6 5 7 8 6 7 8 10 8 12 10 5 6 5 3 2
3 4 4 2 0 2 5 14 18 18 21 21 21 20 17 14 13 13 13 11 10 13 13 10 10 10 10 7 8 7 4 6 10 12 16 13 7 4 3 2 4 1 6
2 3 4 5 6 7 6 7 11 18 23 23 24 22 18 20 15 16 16 15 14 13 13 12 11 12 12 8 9 6 3 2 7 9 8 7 4 4 7 4 2 4 5
2 1 4 6 4 6 6 7 9 14 18 23 27 27 20 24 22 16 16 19 17 15 14 14 15 16 13 12 11 9 8 4 5 5 5 5 5 7 5 1 2 2 3
2 5 8 8 7 6 5 6 8 12 14 17 19 22 18 18 17 17 13 14 15 17 16 17 18 19 16 14 13 10 15 11 8 5 6 4 4 4 0 2 4 3 1
1 6 8 5 11 8 6 6 9 7 10 12 13 18 15 15 16 22 19 17 18 17 22 17 18 21 20 18 21 22 18 16 11 9 6 8 5 4 3 5 5 6 8
3 1 6 9 9 11 10 9 9 11 11 10 12 10 12 12 16 19 20 18 20 23 23 21 20 19 19 21 19 25 21 16 14 12 10 8 7 6 6 7 8 7 10
8 7 6 8 11 9 12 11 10 11 13 15 14 15 16 16 16 17 18 22 24 25 25 24 26 22 18 22 17 20 23 18 16 14 13 11 12 12 11 8 2 4 6
9 9 10 11 11 13 14 17 18 17 16 17 18 20 18 17 19 21 21 21 20 21 22 26 28 24 21 22 20 21 19 16 17 17 15 14 17 15 9 3 5 7 9
11 10 11 13 12 15 16 19 21 19 21 21 22 21 23 25 25 23 21 23 24 26 26 20 24 23 27 23 22 21 18 15 16 20 21 21 16 12 5 4 5 7 10
13 12 13 13 13 17 15 19 21 25 27 26 25 21 24 20 23 22 21 22 23 26 28 26 26 27 31 27 25 24 21 19 23 22 25 21 17 11 7 6 6 8 8
16 16 16 15 16 16 14 18 18 10 13 20 25 30 33 29 22 20 19 20 22 21 23 23 18 26 26 25 25 26 25 24 18 15 19 17 13 10 8 8 9 12 13
22 19 17 14 15 15 11 7 2 9 9 10 15 26 34 29 20 21 19 7 28 27 20 15 16 13 13 15 14 20 20 17 16 16 14 12 11 10 11 12 13 13 12
21 23 19 20 19 17 14 10 6 4 4 10 14 12 6 11 11 4 1 5 12 14 27 25 22 17 13 13 21 23 22 20 17 14 12 12 11 11 13 14 15 17 16
25 18 20 15 16 16 14 10 8 7 9 9 13 14 12 9 10 8 5 6 8 9 6 3 4 9 9 10 13 16 18 17 13 10 9 9 11 13 13 13 14 11 8
Wind_Direction
149 150 153 153 139 131 124 114 103 94 85 84 87 97 82 78 95 78 82 77 78 71 68 70 66 70 70 79 111 145 155 156 119 109 132 129 121 124 113 101 94 98 97
157 161 158 150 147 143 131 117 115 105 101 101 100 93 89 87 92 78 87 84 82 84 86 82 78 77 78 76 96 109 122 150 140 132 137 131 127 133 129 123 100 97 91
162 167 159 158 150 151 144 135 126 117 113 110 109 106 102 93 96 96 96 91 82 87 92 87 88 88 88 95 106 106 110 136 145 145 135 143 137 141 126 117 117 107 102
175 174 178 171 160 162 158 144 140 136 129 128 122 120 124 112 103 99 114 93 89 85 87 87 86 87 92 87 104 113 123 130 144 143 141 145 144 146 137 137 139 129 115
188 191 191 178 172 173 167 166 161 150 144 138 138 135 128 129 119 120 112 106 96 88 83 82 82 83 96 100 94 115 127 132 138 139 140 148 148 154 165 148 141 143 131
197 215 198 183 178 183 181 179 173 160 158 160 161 146 125 132 123 128 123 117 109 105 107 91 87 86 89 97 108 97 106 131 140 145 148 151 160 155 162 166 161 174 239
211 230 190 191 198 195 190 186 180 168 167 157 163 162 142 148 131 131 128 128 122 111 119 114 104 100 91 104 107 111 115 123 134 144 145 149 160 165 178 195 208 220 250
210 224 213 222 206 223 236 198 191 180 177 172 173 172 152 155 146 135 133 129 128 119 119 121 117 108 97 119 118 111 105 107 109 113 124 127 132 139 154 175 225 236 214
189 174 167 205 177 248 272 223 215 199 186 185 182 180 168 164 161 152 147 143 137 129 129 129 134 125 122 115 117 115 110 103 104 106 107 104 101 90 87 126 75 67 231
132 129 142 157 154 257 314 341 300 236 198 188 180 194 188 178 174 172 159 157 164 157 150 149 159 147 142 164 145 136 135 133 125 129 137 124 109 85 59 75 73 80 117
162 158 163 160 191 328 280 305 240 287 206 191 194 192 193 191 188 189 178 194 180 169 169 171 166 169 167 150 150 179 162 170 208 232 231 191 164 119 76 72 64 86 100
195 213 201 130 134 234 226 216 223 258 243 196 191 190 190 193 200 197 175 164 184 180 190 182 174 168 165 161 163 163 177 201 240 267 259 241 183 187 162 77 30 36 31
116 131 154 186 241 208 210 212 221 226 222 208 195 189 185 192 198 204 205 196 190 190 197 199 186 174 156 149 148 133 106 73 83 128 133 141 131 104 111 107 34 49 288
77 285 282 289 276 274 249 232 222 218 208 199 201 201 194 193 206 206 206 202 199 198 198 196 190 182 177 165 164 160 96 95 100 99 113 118 123 154 153 114 48 339 332
89 326 287 283 276 274 276 241 232 234 230 224 216 209 196 193 208 207 209 203 204 200 193 193 191 194 205 208 200 208 198 158 127 110 103 97 138 133 141 159 293 339 339
343 302 267 246 248 277 272 265 257 249 244 239 235 215 210 205 205 214 202 197 198 196 198 202 206 209 217 218 227 233 184 162 156 151 157 149 130 157 19 202 219 248 110
269 307 317 290 242 248 273 271 259 263 253 245 244 223 218 217 218 206 201 196 198 196 207 216 222 220 227 233 239 241 194 181 184 177 185 182 192 170 257 290 237 261 196
195 359 301 294 294 244 244 272 256 247 243 232 218 208 201 200 191 191 192 197 190 199 211 224 227 235 250 257 200 197 183 182 191 188 207 208 198 199 248 281 263 336 234
228 261 292 298 282 272 248 249 259 252 243 238 221 216 213 205 205 205 209 212 208 213 221 229 231 236 257 206 178 175 181 187 186 197 218 220 214 221 233 263 62 15 360
255 260 268 278 284 269 255 248 249 235 235 221 219 218 206 202 206 210 211 215 219 226 234 235 235 237 253 189 179 168 166 176 188 208 228 223 226 236 195 222 294 308 316
236 263 272 256 259 274 269 250 250 242 235 225 231 231 224 222 221 215 220 224 227 226 230 237 246 245 200 190 194 196 208 225 225 229 237 238 252 192 197 213 248 268 291
237 246 266 267 250 267 275 281 268 261 247 218 210 213 230 219 216 217 228 233 231 229 231 241 248 233 197 197 202 201 209 219 233 246 247 239 189 195 211 223 249 269 276
243 243 250 261 245 260 285 278 307 281 266 237 215 203 210 214 209 205 224 239 240 227 230 245 212 200 206 205 209 215 212 223 220 202 183 191 200 208 227 252 271 279 279
262 246 245 251 234 251 266 296 83 66 70 85 190 201 201 206 216 212 231 317 239 231 223 216 219 192 173 182 184 209 210 206 208 209 211 218 223 232 248 261 267 265 272
303 263 259 252 241 244 241 247 233 219 156 105 116 124 171 210 188 175 251 285 305 295 226 199 194 189 193 196 211 219 221 226 226 220 222 224 237 257 266 266 265 270 268
331 303 287 273 262 247 244 230 234 240 239 221 195 185 192 163 155 166 126 86 75 30 51 138 248 276 281 262 242 217 214 218 216 215 231 255 272 273 263 265 262 247 236